Content
SEND FEEDBACK

Daily
Averages
Monthly
Summary
China

GUILIN, CHINA


Home > Asia > China
Elevation: 512 feet     Latitude: 25 15N     Longitude: 110 10E

WEATHER
 
SELECT A DAY
Number of Records: 125,980;   Date Range: 11/4/98 - 9/22/14
 
SHARE

PRINT THIS DATA

[ ← Previous Day ]
WEATHER ALMANAC - JANUARY 23, 2013
[ Next Day → ]
[ °C ]   °F
Weather ElementAverageHighLow
Temperature48.7 °F53.6 °F (3:00 pm)44.6 °F (1:00 am)
Dewpoint38.7 °F46.4 °F (11:00 pm)35 °F (5:00 am)
Humidity66.1 %87 % (11:00 pm)40 % (2:00 pm)
Barometer30.19 in30.32 in (11:00 am)30.06 in (7:00 pm)
Wind Speed3.5 mph8.9 mph (2:00 am)
Weather ElementAverage
Visibility2.4 mi
Wind DirectionNE (41 °)

Weather ElementTotal
Precipitation---
Heating Degree Days15.9 (Base 65)
Averaged from 31 records on January 23, 2013
WEATHER CONDITIONS BREAKOUT
WIND DIRECTION BREAKOUT
WEATHER BY HOUR - JANUARY 23, 2013
[ °C ]   °F
Local TimeTemperatureDewpointHumidityBarometerVisibilityWind DirectionWind SpeedGust SpeedPrecipitationEventsConditions
1:00 AM44.6 °F37.4 °F76 %30.30 in1.6 miENE (60°)4.5 mphHaze
2:00 AM46.0 °F36.0 °F59 %30.31 in4.0 miNNE (20°)8.9 mphMist
2:00 AM44.6 °F37.4 °F76 %30.27 in1.6 miVariable2.2 mphHaze
3:00 AM44.6 °F37.4 °F76 %30.27 in1.6 miNE (50°)6.7 mphHaze
4:00 AM44.6 °F37.4 °F76 %30.24 in1.9 miVariable4.5 mphHaze
5:00 AM45.0 °F35.0 °F58 %30.25 in4.0 miNNE (20°)8.9 mphMist
5:00 AM44.6 °F37.4 °F76 %30.21 in1.6 miWNW (300°)2.2 mphOvercast
6:00 AM44.6 °F37.4 °F76 %30.21 in1.6 miVariable2.2 mphOvercast
7:00 AM44.6 °F37.4 °F76 %30.24 in1.6 miVariable2.2 mphOvercast
8:00 AM46.0 °F35.0 °F53 %30.29 in4.0 miNNE (20°)4.5 mphMist
8:00 AM44.6 °F39.2 °F81 %30.24 in1.6 miVariable2.2 mphOvercast
9:00 AM46.4 °F37.4 °F71 %30.27 in1.7 miCalmHaze
10:00 AM46.4 °F37.4 °F71 %30.30 in2.2 miENE (60°)4.5 mphHaze
11:00 AM48.0 °F35.0 °F50 %30.32 in4.0 miNE (40°)2.2 mphHaze
11:00 AM48.2 °F35.6 °F62 %30.27 in2.2 miEast (80°)4.5 mphHaze
12:00 PM50.0 °F37.4 °F62 %30.24 in2.2 miVariable4.5 mphHaze
1:00 PM50.0 °F37.4 °F62 %30.21 in1.9 miVariable2.2 mphHaze
2:00 PM53.0 °F36.0 °F40 %30.17 in4.0 miSW (220°)2.2 mphHaze
2:00 PM51.8 °F37.4 °F58 %30.15 in2.2 miVariable2.2 mphHaze
3:00 PM53.6 °F39.2 °F58 %30.12 in2.2 miVariable2.2 mphHaze
4:00 PM51.8 °F39.2 °F62 %30.09 in1.9 miVariable2.2 mphHaze
5:00 PM53.0 °F37.0 °F43 %30.10 in4.0 miCalmHaze
5:00 PM53.6 °F39.2 °F58 %30.09 in2.2 miVariable2.2 mphHaze
6:00 PM51.8 °F39.2 °F62 %30.09 in1.9 miVariable2.2 mphHaze
7:00 PM51.8 °F42.8 °F71 %30.06 in1.6 miWNW (290°)2.2 mphHaze
8:00 PM53.0 °F40.0 °F50 %30.11 in4.0 miENE (70°)2.2 mphHaze
8:00 PM51.8 °F44.6 °F76 %30.09 in1.6 miVariable2.2 mphHaze
9:00 PM50.0 °F44.6 °F82 %30.09 in1.6 miVariable6.7 mphOvercast
10:00 PM50.0 °F44.6 °F82 %30.12 in1.6 miVariable6.7 mphOvercast
11:00 PM52.0 °F42.0 °F58 %30.15 in4.0 miNorth4.5 mphMist
11:00 PM50.0 °F46.4 °F87 %30.12 in1.6 miVariable4.5 mphOvercast
Hourly data recorded from ZGKL, located miles away from Guilin, China







STORIES FROM OUR PARTNERS